User: anonymous   Login
Location: Hancock Field Station
(44.9202°N, 120.4259°W)
Time: 15:03:10
(UTC-07:00)
Language:

Nadezhda 4 Rocket - Orbit

View from above orbital plane
View from above orbital plane
View from above satellite
View from above satellite

Ground track
Ground track

The orbit data is extracted from the following two-line orbital elements,

1 23180U 94041B   16148.23241921  .00000028  00000-0  13034-4 0  9991
2 23180  82.9472 218.2222 0027996 224.4746 188.5751 13.77930515 99755
Epoch (UTC): 27 May 2016 05:34:41
Eccentricity: 0.0027996
inclination: 82.9472°
perigee height: 950 km
apogee height: 992 km
right ascension of ascending node: 218.2222°
argument of perigee: 224.4746°
revolutions per day: 13.77930515
mean anomaly at epoch: 188.5751°
orbit number at epoch: 9975

The dashed part of the orbit path shows where the satellite is in the earth's shadow,  

DLR